180P/NEAT (2015)

Japanese version
Home page
Updated on August 10, 2016

---------------------------------------------------------------------

* Profile

* Pictures

* Orbital Elements

Epoch 2015 Dec. 4.0 TT = JDT 2457360.5
T 2015 Dec. 12.71803 TT                                 MPCW
q   2.4893534            (2000.0)            P               Q
n   0.12994845     Peri.   94.87101     -0.95726873     -0.01316300
a   3.8603081      Node    84.58322     -0.10999083     -0.90732218
e   0.3551413      Incl.   16.86970     +0.26746701     -0.42022993
P   7.58
From 620 observations 1955 May 14-2016 May 17, mean residual 0".7.
     Nongravitational parameters A1 = -1.03, A2 = +0.0621.

* Magnitudes Graph

        m1 = 7.5 + 5 log d + 20.0 log r

---------------------------------------------------------------------

The orbital elements are published on M.P.E.C. 2016-K18.
The magnitudes graphs are made with Comet for Windows.

---------------------------------------------------------------------

Copyright(C) Seiichi Yoshida (comet@aerith.net). All rights reserved.